Weather reports worldwide

Advertisment
Feldberg/Mecklenburg, Germany (10282): temperature & dewpoint: 06.11.2019 06:00:00 - 12.11.2019 06:00:00 (CET)Feldberg/Mecklenburg, Germany (10282): temperature 5cm & temperature -5cm: 06.11.2019 06:00:00 - 12.11.2019 06:00:00 (CET)Feldberg/Mecklenburg, Germany (10282): temperature -20cm & temperature -100cm: 06.11.2019 06:00:00 - 12.11.2019 06:00:00 (CET)Feldberg/Mecklenburg, Germany (10282): wind speed & gusts: 06.11.2019 06:00:00 - 12.11.2019 06:00:00 (CET)Feldberg/Mecklenburg, Germany (10282): wind direction: 06.11.2019 06:00:00 - 12.11.2019 06:00:00 (CET)Feldberg/Mecklenburg, Germany (10282): reduced air pressure: 06.11.2019 06:00:00 - 12.11.2019 06:00:00 (CET)Feldberg/Mecklenburg, Germany (10282): visibility: 06.11.2019 06:00:00 - 12.11.2019 06:00:00 (CET)Feldberg/Mecklenburg, Germany (10282): sunshine duration: 06.11.2019 06:00:00 - 12.11.2019 06:00:00 (CET)Feldberg/Mecklenburg, Germany (10282): precipitation: 06.11.2019 06:00:00 - 12.11.2019 06:00:00 (CET)
Date & Time tt [°C] td [°C] tt 5cm [°C] tt -5cm [°C] tt -20cm [°C] tt -100cm [°C] ff [km/h] ff [kn] fx [km/h] fx [kn] dd ppp [hPa] vv [km] sd [min] rr [mm]
12.11.2019 06:00:00 0,7 -0,1 -0,1 1,7 4,5 10,2 13 7 19 11 S 1005,5 9 0 0,0
12.11.2019 05:00:00 1,1 0,1 0,9 1,8 4,6 10,2 11 6 21 12 S 1005,1 11 0 0,0
12.11.2019 04:00:00 0,8 0,0 0,6 1,6 4,7 10,2 14 7 23 13 S 1005,4 9 0 0,0
12.11.2019 03:00:00 0,9 0,2 0,3 1,5 4,8 10,2 12 6 24 13 S 1005,6 9 0 0,0
12.11.2019 02:00:00 1,1 0,4 0,2 1,6 5,0 10,2 12 6 22 12 SSE 1005,6 10 0 0,0
12.11.2019 01:00:00 1,6 0,6 0,9 1,8 5,2 10,2 11 6 24 13 SSE 1005,8 11 0 0,0
12.11.2019 00:00:00 1,7 0,4 1,0 2,0 5,3 10,2 16 8 29 16 SSE 1006,4 14 0 0,0
11.11.2019 23:00:00 2,2 0,4 1,5 2,1 5,5 10,2 21 11 34 18 SSE 1006,7 18 0 0,0
11.11.2019 22:00:00 2,7 0,6 1,9 2,3 5,7 10,3 18 10 33 18 SSE 1006,9 23 0 0,0
11.11.2019 21:00:00 3,2 0,9 2,1 2,5 5,9 10,3 16 9 27 15 SE 1007,4 25 0 0,0
11.11.2019 20:00:00 3,2 1,6 2,1 2,7 6,2 10,3 15 8 27 14 SSE 1008,0 20 0 0,0
11.11.2019 19:00:00 3,0 1,8 1,9 3,0 6,4 10,3 14 8 26 14 SE 1008,0 18 0 0,0
11.11.2019 18:00:00 2,7 2,0 1,8 3,6 6,7 10,3 17 9 27 14 SE 1008,2 9 0 0,0
11.11.2019 17:00:00 3,5 2,0 2,2 4,4 6,8 10,3 13 7 24 13 SE 1009,1 20 0 0,0
11.11.2019 16:00:00 4,5 2,1 3,4 5,6 6,9 10,3 9 5 19 10 SE 1009,6 27 51 0,0
11.11.2019 15:00:00 5,1 2,2 5,2 6,7 6,7 10,3 12 6 25 14 SSE 1010,1 23 60 0,0
11.11.2019 14:00:00 4,7 2,1 6,0 7,0 6,5 10,3 19 10 31 17 S 1010,8 23 57 0,0
11.11.2019 13:00:00 3,5 2,4 4,3 6,1 6,4 10,3 18 10 30 16 S 1011,2 17 6 0,0
11.11.2019 12:00:00 3,3 2,7 3,8 5,6 6,3 10,3 19 11 35 19 S 1012,0 13 0 0,0
11.11.2019 11:00:00 3,1 3,1 3,7 5,2 6,3 10,3 13 7 22 12 SSE 1012,3 2,7 0 0,0
11.11.2019 10:00:00 2,8 2,8 3,4 4,9 6,3 10,3 11 6 22 12 SSE 1012,8 1,6 0 0,0
11.11.2019 09:00:00 2,5 2,5 3,0 4,6 6,3 10,4 12 6 21 11 SE 1013,3 1,9 0 0,0
11.11.2019 08:00:00 2,7 2,7 2,9 4,4 6,3 10,4 11 6 19 10 S 1014,0 0,7 0 0,0
11.11.2019 07:00:00 2,8 2,8 3,0 4,4 6,4 10,4 8 4 16 9 S 1014,2 1,1 0 0,0
11.11.2019 06:00:00 2,5 2,5 2,7 4,3 6,5 10,4 11 6 16 9 S 1014,4 0,3 0 0,0
11.11.2019 05:00:00 2,1 2,1 2,4 4,3 6,6 10,4 8 5 18 10 SSW 1015,0 0,2 0 0,0
11.11.2019 04:00:00 1,9 1,9 2,3 4,3 6,7 10,4 12 6 16 9 S 1015,0 0,3 0 0,0
11.11.2019 03:00:00 1,7 1,7 2,1 4,5 6,8 10,4 11 6 19 10 S 1015,3 0,3 0 0,0
11.11.2019 02:00:00 1,5 1,5 1,9 4,6 7,0 10,4 12 7 17 9 S 1015,4 0,2 0 0,0
11.11.2019 01:00:00 1,8 1,8 2,2 4,9 7,1 10,4 10 6 15 8 S 1015,4 0,2 0 0,0
11.11.2019 00:00:00 2,0 2,0 2,3 5,2 7,2 10,4 9 5 14 8 S 1015,8 0,2 0 0,0
10.11.2019 23:00:00 2,2 2,2 2,6 5,4 7,4 10,4 10 5 14 8 SSW 1015,8 0,2 0 0,0
10.11.2019 22:00:00 2,5 2,5 2,9 5,6 7,5 10,4 10 5 13 7 WSW 1016,0 0,2 0 0,0
10.11.2019 21:00:00 2,8 2,8 3,2 5,9 7,6 10,4 9 5 14 8 S 1015,9 0,3 0 0,0
10.11.2019 20:00:00 3,4 3,4 3,7 6,1 7,8 10,4 9 5 16 8 SSW 1015,8 0,3 0 0,0
10.11.2019 19:00:00 3,4 3,4 3,7 6,3 7,9 10,5 8 4 14 8 SW 1015,8 0,5 0 0,0
10.11.2019 18:00:00 3,8 3,7 4,0 6,6 8,1 10,5 10 5 15 8 SSW 1015,8 6 0 0,0
10.11.2019 17:00:00 4,2 3,4 4,0 7,4 8,1 10,5 8 4 14 8 SSW 1015,5 16 0 0,0
10.11.2019 16:00:00 4,2 3,4 4,7 8,3 8,1 10,5 9 5 14 8 SW 1015,0 18 0 0,0
10.11.2019 15:00:00 5,1 3,9 5,9 9,0 7,9 10,5 5 3 13 7 SSW 1014,8 22 8 0,0
10.11.2019 14:00:00 6,1 4,3 8,4 9,7 7,5 10,5 6 4 11 6 WSW 1014,2 22 43 0,0
10.11.2019 13:00:00 5,8 3,9 7,5 9,7 7,0 10,5 7 4 10 5 SW 1014,1 18 45 0,0
10.11.2019 12:00:00 5,8 4,5 9,0 8,9 6,6 10,5 7 4 11 6 SW 1013,8 11 60 0,0
10.11.2019 11:00:00 4,6 4,6 6,6 6,6 6,4 10,5 7 4 13 7 W 1013,6 2,1 18 0,0
10.11.2019 10:00:00 2,8 2,8 3,8 5,2 6,3 10,5 4 2 13 7 WSW 1013,6 0,3 0 0,0
10.11.2019 09:00:00 1,9 1,9 2,4 4,3 6,4 10,5 9 5 14 8 W 1013,2 0,2 0 0,0
10.11.2019 08:00:00 1,3 1,3 1,5 4,1 6,4 10,5 4 2 8 5 WSW 1012,7 0,1 0 0,0
10.11.2019 07:00:00 1,8 1,8 1,9 4,2 6,5 10,5 3 2 12 6 SW 1012,2 0,1 0 0,0
10.11.2019 06:00:00 2,7 2,7 1,7 4,4 6,6 10,5 4 2 8 4 SW 1011,4 0,7 0 0,0
10.11.2019 05:00:00 3,1 3,1 3,1 4,4 6,7 10,5 6 3 13 7 S 1011,1 0,4 0 0,0
10.11.2019 04:00:00 3,1 3,1 2,9 4,4 6,8 10,5 5 3 8 5 WSW 1010,4 3,3 0 0,0
10.11.2019 03:00:00 2,6 2,6 2,7 4,2 7,0 10,6 5 3 12 7 WSW 1010,3 0,1 0 0,0
10.11.2019 02:00:00 2,2 2,2 1,5 4,4 7,2 10,6 8 4 14 7 WSW 1010,0 0,3 0 0,0
10.11.2019 01:00:00 3,5 3,5 3,2 4,8 7,4 10,6 10 5 17 9 W 1009,7 0,3 0 0,0
10.11.2019 00:00:00 4,1 3,9 3,4 5,4 7,5 10,6 11 6 20 11 WSW 1009,6 8 0 0,0
09.11.2019 23:00:00 4,9 4,6 4,4 5,8 7,6 10,6 14 7 18 10 SW 1008,9 20 0 0,0
09.11.2019 22:00:00 5,3 5,0 4,9 6,0 7,8 10,6 12 6 21 11 WSW 1008,6 22 0 0,0
09.11.2019 21:00:00 5,2 4,8 4,8 6,0 7,9 10,6 14 7 21 12 WSW 1008,1 19 0 0,0
09.11.2019 20:00:00 5,6 5,2 5,0 6,5 8,0 10,6 15 8 24 13 W 1007,8 14 0 0,0
09.11.2019 19:00:00 6,2 5,7 5,9 6,7 8,1 10,6 17 9 26 14 W 1007,5 15 0 0,0
09.11.2019 18:00:00 6,3 6,0 6,0 6,9 8,1 10,6 17 9 23 12 WSW 1007,2 8 0 0,0
09.11.2019 17:00:00 6,8 6,4 6,4 7,3 8,2 10,6 15 8 21 11 W 1006,6 13 0 0,1
09.11.2019 16:00:00 6,5 6,2 6,3 7,4 8,2 10,6 8 4 22 12 W 1006,0 16 0 0,7
09.11.2019 15:00:00 6,3 5,7 6,1 7,7 8,2 10,6 14 7 26 14 WNW 1005,6 7 0 0,2
09.11.2019 14:00:00 7,2 6,7 7,0 8,0 8,2 10,6 15 8 24 13 WNW 1005,2 2,5 0 0,1
09.11.2019 13:00:00 7,8 7,3 7,7 8,2 8,1 10,6 13 7 22 12 WNW 1004,7 8 0 0,0
09.11.2019 12:00:00 7,7 7,2 7,6 8,0 8,0 10,6 14 8 23 12 WNW 1004,7 7 0 0,0
09.11.2019 11:00:00 7,2 7,2 7,4 7,7 7,9 10,6 9 5 20 11 WNW 1005,0 4,5 0 0,0
09.11.2019 10:00:00 7,1 7,1 7,2 7,4 7,9 10,6 11 6 16 9 W 1005,2 0,6 0 0,0
09.11.2019 09:00:00 7,0 6,9 7,1 7,2 7,9 10,6 5 3 12 7 NW 1005,1 4,3 0 0,0
09.11.2019 08:00:00 6,8 6,7 6,7 7,1 7,9 10,7 8 4 15 8 NNW 1004,9 3,5 0 1,1
09.11.2019 07:00:00 6,7 6,6 6,6 7,1 7,9 10,7 4 2 13 7 NNW 1005,0 3,4 0 1,2
09.11.2019 06:00:00 6,6 6,5 6,6 7,1 7,9 10,7 8 5 13 7 N 1004,7 2,0 0 0,2
09.11.2019 05:00:00 6,7 6,6 6,6 7,1 7,9 10,7 7 4 12 7 N 1005,0 3,0 0 0,1
09.11.2019 04:00:00 6,7 6,6 6,6 7,1 7,9 10,7 8 5 15 8 N 1005,1 3,5 0 0,4
09.11.2019 03:00:00 6,7 6,6 6,6 7,1 7,9 10,7 12 7 17 9 N 1005,2 1,6 0 1,3
09.11.2019 02:00:00 6,8 6,6 6,7 7,0 7,9 10,7 12 6 21 12 NE 1005,6 1,3 0 0,0
09.11.2019 01:00:00 6,8 6,7 6,6 7,0 7,9 10,7 13 7 22 12 NNE 1005,8 3,7 0 0,0
09.11.2019 00:00:00 6,8 6,5 6,5 7,0 7,9 10,7 15 8 20 11 N 1006,4 3,8 0 0,0
08.11.2019 23:00:00 6,9 6,7 6,7 7,0 8,0 10,7 13 7 21 11 N 1006,7 3,8 0 0,0
08.11.2019 22:00:00 6,8 6,5 6,5 7,0 8,0 10,7 13 7 22 12 N 1007,1 4,7 0 0,0
08.11.2019 21:00:00 6,9 6,6 6,5 6,9 8,1 10,7 18 10 27 14 NNE 1007,1 4,1 0 0,0
08.11.2019 20:00:00 6,9 6,5 6,5 7,0 8,1 10,7 15 8 19 10 NNE 1007,6 8 0 0,0
08.11.2019 19:00:00 6,6 6,2 6,1 7,2 8,2 10,8 11 6 16 8 N 1007,5 7 0 0,0
08.11.2019 18:00:00 7,1 6,5 6,6 7,5 8,2 10,8 9 5 15 8 N 1007,8 10 0 0,1
08.11.2019 17:00:00 7,4 6,2 6,9 7,8 8,2 10,8 9 5 16 9 NE 1007,9 22 0 0,0
08.11.2019 16:00:00 7,6 5,8 7,0 8,5 8,1 10,8 7 4 11 6 ENE 1008,0 36 0 0,0
08.11.2019 15:00:00 8,1 5,8 8,0 9,1 7,8 10,8 6 3 14 7 ENE 1008,1 45 0 0,0
08.11.2019 14:00:00 8,4 6,1 9,8 9,0 7,5 10,8 8 4 10 5 NNE 1008,2 37 1 0,0
08.11.2019 13:00:00 7,9 6,0 8,8 8,4 7,1 10,8 6 3 8 5 NNE 1008,6 30 0 0,0
08.11.2019 12:00:00 7,1 5,4 8,1 7,6 6,8 10,8 5 3 8 4 NE 1008,6 33 0 0,0
08.11.2019 11:00:00 5,9 5,8 6,8 6,3 6,7 10,8 3 2 7 4 ENE 1009,3 8 0 0,0
08.11.2019 10:00:00 4,6 4,6 4,7 4,9 6,7 10,8 2 1 3 2 N 1009,0 8 0 0,0
08.11.2019 09:00:00 2,9 2,9 2,7 3,9 6,8 10,8 0 0 4 2 N 1008,6 0,2 0 0,0
08.11.2019 08:00:00 2,0 2,0 0,1 3,6 7,1 10,8 0 0 4 2 N 1008,5 1,3 0 0,0
08.11.2019 07:00:00 2,3 2,3 1,2 3,9 7,3 10,8 0 0 5 3 N 1007,9 0,1 0 0,0
08.11.2019 06:00:00 3,4 3,4 0,0 4,4 7,6 10,8 3 2 9 5 SSW 1007,2 6 0 0,0
08.11.2019 05:00:00 3,8 3,4 1,9 5,1 7,7 10,8 3 2 5 3 SSW 1007,2 11 0 0,0
08.11.2019 04:00:00 5,5 4,8 3,0 5,9 7,8 10,8 3 2 13 7 SW 1006,4 22 0 0,0
08.11.2019 03:00:00 6,7 5,7 5,9 6,4 7,9 10,8 11 6 17 9 S 1006,3 31 0 0,0
08.11.2019 02:00:00 7,0 5,7 6,6 6,4 8,0 10,8 9 5 18 10 S 1005,5 30 0 0,0
08.11.2019 01:00:00 6,9 5,7 6,5 6,2 8,1 10,9 8 4 13 7 SSE 1004,9 29 0 0,0
08.11.2019 00:00:00 6,5 5,6 5,0 6,5 8,2 10,9 9 5 16 9 S 1004,9 23 0 0,0
07.11.2019 23:00:00 7,6 6,3 7,0 6,8 8,2 10,9 9 5 17 9 SSE 1004,7 27 0 0,0
07.11.2019 22:00:00 7,8 6,5 6,7 6,9 8,3 10,9 9 5 14 8 SE 1004,2 27 0 0,0
07.11.2019 21:00:00 7,6 6,9 6,8 6,9 8,4 10,9 6 4 13 7 SE 1004,4 16 0 0,0
07.11.2019 20:00:00 7,7 7,2 6,7 7,1 8,5 10,9 6 4 13 7 SE 1004,2 9 0 0,0
07.11.2019 19:00:00 7,9 7,4 7,1 7,5 8,5 10,9 7 4 12 6 SE 1004,0 9 0 0,0
07.11.2019 18:00:00 7,7 7,4 7,3 7,7 8,5 10,9 8 4 13 7 SE 1004,0 6 0 0,0
07.11.2019 17:00:00 7,7 7,4 7,3 7,9 8,5 10,9 8 5 13 7 SE 1003,6 4,4 0 0,0
07.11.2019 16:00:00 7,5 7,1 7,4 8,1 8,5 10,9 8 4 18 10 SE 1003,4 6 0 0,0
07.11.2019 15:00:00 7,3 6,9 7,4 8,2 8,4 10,9 10 5 17 9 SE 1003,2 8 0 0,0
07.11.2019 14:00:00 7,0 6,7 7,3 8,1 8,4 10,9 9 5 14 7 SE 1003,1 6 0 0,0
07.11.2019 13:00:00 6,8 6,6 7,1 8,1 8,3 10,9 6 4 11 6 ESE 1003,4 6 0 0,0
07.11.2019 12:00:00 6,5 6,1 6,6 7,9 8,2 10,9 9 5 14 7 ESE 1003,7 8 0 0,0
07.11.2019 11:00:00 6,5 6,2 6,8 7,6 8,1 10,9 6 4 10 6 ESE 1003,7 7 0 0,1
07.11.2019 10:00:00 5,9 5,9 6,1 7,2 8,1 10,9 3 2 10 5 SSE 1003,9 4,8 0 0,0
07.11.2019 09:00:00 5,6 5,2 5,7 6,8 8,1 10,9 4 2 9 5 SSE 1003,6 13 0 0,0
07.11.2019 08:00:00 5,4 4,8 5,3 6,6 8,1 10,9 6 3 16 8 SSW 1003,5 19 0 0,0
07.11.2019 07:00:00 5,4 5,0 5,3 6,6 8,2 10,9 9 5 17 9 S 1003,3 12 0 0,0
07.11.2019 06:00:00 5,4 5,4 5,3 6,5 8,3 10,9 11 6 15 8 SSW 1003,0 10 0 0,0
07.11.2019 05:00:00 5,8 5,7 5,6 6,7 8,4 10,9 6 3 11 6 S 1003,0 11 0 0,0
07.11.2019 04:00:00 5,8 5,4 5,4 6,9 8,5 10,9 9 5 15 8 SW 1003,0 22 0 0,0
07.11.2019 03:00:00 6,1 5,9 5,8 6,9 8,6 10,9 9 5 14 7 SW 1003,0 19 0 0,0
07.11.2019 02:00:00 6,2 6,0 5,9 7,2 8,6 10,9 9 5 13 7 WSW 1002,9 14 0 0,0
07.11.2019 01:00:00 5,9 5,6 5,3 7,3 8,7 10,9 5 3 14 8 WSW 1002,9 14 0 0,0
07.11.2019 00:00:00 6,4 6,3 6,4 7,5 8,8 10,9 8 4 11 6 SW 1003,1 14 0 0,0
06.11.2019 23:00:00 6,5 6,5 6,4 7,6 8,9 10,9 5 3 8 4 WSW 1002,8 9 0 0,0
06.11.2019 22:00:00 6,5 6,4 6,4 7,6 8,9 10,9 6 3 8 4 SW 1002,7 16 0 0,0
06.11.2019 21:00:00 6,4 6,3 6,3 7,7 9,0 10,9 4 2 6 3 SW 1002,4 23 0 0,0
06.11.2019 20:00:00 6,4 6,3 6,1 7,8 9,1 10,9 4 2 8 4 WSW 1002,0 20 0 0,0
06.11.2019 19:00:00 6,5 6,2 6,2 7,9 9,2 10,9 6 3 8 5 W 1001,8 43 0 0,0
06.11.2019 18:00:00 6,5 6,3 6,3 8,2 9,4 10,9 6 3 8 4 W 1001,6 38 0 0,1
06.11.2019 17:00:00 6,8 6,3 6,6 8,5 9,4 10,9 4 2 9 5 W 1001,2 31 0 0,0
06.11.2019 16:00:00 7,1 6,1 7,0 9,1 9,4 10,9 6 4 13 7 W 1000,9 51 0 0,0
06.11.2019 15:00:00 7,4 6,0 7,6 9,5 9,4 10,9 8 4 15 8 W 1000,4 64 0 0,0
06.11.2019 14:00:00 7,5 5,7 8,2 9,8 9,2 10,9 11 6 16 9 WNW 1000,1 55 0 0,0
06.11.2019 13:00:00 7,1 6,4 7,8 9,5 9,1 10,9 8 4 17 9 NW 999,8 35 0 0,0
06.11.2019 12:00:00 7,1 5,9 8,0 9,5 9,0 10,9 8 4 18 10 WNW 999,5 71 0 0,0
06.11.2019 11:00:00 6,9 6,2 7,7 8,9 8,9 10,9 10 6 18 10 WNW 999,2 20 0 0,0
06.11.2019 10:00:00 6,7 6,2 7,2 8,3 8,8 10,9 10 5 18 10 WNW 998,9 37 0 0,0
06.11.2019 09:00:00 6,4 6,0 6,5 7,7 8,9 10,9 8 4 17 9 NW 998,4 33 0 0,0
06.11.2019 08:00:00 6,4 6,1 6,3 7,6 9,0 10,9 10 5 16 9 NW 997,8 13 0 0,0
06.11.2019 07:00:00 6,5 6,3 6,4 7,8 9,1 10,9 10 5 22 12 NNW 997,2 3,3 0 0,1
06.11.2019 06:00:00 6,7 6,7 6,7 7,9 9,1 10,9 11 6 18 10 NNW 996,7 1,9 0 0,3

tt = temperature
td = dewpoint
tt 5cm = temperature 5cm
tt -5cm = temperature -5cm
tt -20cm = temperature -20cm
tt -100cm = temperature -100cm
ff = wind speed
fx = gusts
dd = wind direction
ppp = reduced air pressure
vv = visibility
sd = sunshine duration
rr = precipitation

Next stations